Вернуться в каталог

KUIPER-00121

АктивенСвязьLEO
NORAD 65950·PAYLOAD·🇺🇸 United States

Запущен Oct 14, 2025 с Cape Canaveral Space Force Station

Loading…

Ближайшие Пролёты (ближайшие 24 часа)

TLE

СвежийSource: CelesTrak SupGP

Эпоха: Sep 14, 2026, 21:46 UTC

1 65950C 25228D   26257.90702546 -.00014770  00000+0 -19335-2 0  2579
2 65950  51.8985 236.3651 0000780  63.6983  36.3912 14.79944678    13

Отслеживайте KUIPER-00121 в реальном времени с AllMySat

Download on the App Store